sat.trackr.live / text

‹ back to catalog

STARLINK-2570

NORAD 48405 · 2021-038BE

PAYLOAD ACTIVE UNKNOWN

§ Identity

Operator
Country
US
Launch date
2021-05-04
Launch site
AFETR
Launch vehicle
Mass (kg)
RCS (m²)

Purposes: comms

External: N2YO · Heavens-Above · Gunter

§ Orbital elements

Epoch: 2026-09-15T17:49:37.913088Z

Period
94.01 min
Inclination
53.1604°
Eccentricity
0.0001278
Mean motion
15.31710427 rev/d
Perigee alt
469.8 km
Apogee alt
471.6 km
Semi-major
6,848.8 km
B*
1.4585e-4
RAAN
168.3800°
Arg perigee
90.5091°
Mean anomaly
269.6057°
Rev number
29,655

§ Raw data

STARLINK-25701 48405U 21038BE  26258.74279992  .00004165  00000+0  14585-3 0  99982 48405  53.1604 168.3800 0001278  90.5091 269.6057 15.31710427296553

JSON: /api/v1/satellites/48405 · /tle

For live sub-satellite position, see the globe view (requires WebGL).

§ Visibility from observer

Set your observer location to see the next 7 days of passes ≥ 10°. The values pass through the URL so the page stays shareable.

No JS? Fill the form by hand. The geolocation button needs JavaScript.